Home > Weather > Mersin > Past weeks

Flag for Turkey Past Weather in Mersin, Turkey — Yesterday and Last 2 Weeks

Now
68 °F

Passing clouds.


Feels Like: 68 °F
Forecast: 58 / 73 °F
Wind: 3 mph from Southwest

Location: Adana / Sakirpasa

Current Time: May 26, 2016 at 9:37:01 PM

Latest Report: May 26, 2016 at 8:50 PM


Visibility: N/A

Pressure: 29.68 "Hg

Humidity: 73%

Dew Point: 59 °F

Location of MersinLocation

Past Weather in Mersin — Graph

°F

Mersin Temperature Yesterday

Maximum temperature yesterday: 77 °F (at 12:20 PM)
Minimum temperature yesterday: 63 °F (at 5:20 AM)
Average temperature yesterday: 71 °F

High & Low Weather Summary for the Past Weeks

 TemperatureHumidityPressure
High90 °F (May 16, 3:20 PM)94% (May 14, 2:20 AM)30.01 "Hg (May 14, 2:20 AM)
Low61 °F (May 19, 4:20 AM)26% (May 22, 12:20 PM)29.65 "Hg (May 26, 5:20 PM)
Average72 °F68%29.85 "Hg
* Reported May 11 7:20 PM — May 26 7:50 PM, Mersin, Weather by CustomWeather, © 2016

Note: Actual official high and low records may vary slightly from our data, if they occured in-between our weather recording intervals... More about our weather records

Advertising

Mersin Weather History for the Previous 24 Hours

Scroll right to see more
 ConditionsComfort  
Time TempWeatherWind HumidityBarometerVisibility
7:50 PM
Thu, May 26
72 °FScattered clouds.3 mph57%29.68 "HgN/A
7:20 PM73 °FScattered clouds.3 mph50%29.68 "HgN/A
6:50 PM75 °FScattered clouds.3 mph44%29.68 "HgN/A
6:20 PM77 °FScattered clouds.6 mph42%29.65 "HgN/A
5:50 PM77 °FScattered clouds.6 mph42%29.65 "HgN/A
5:20 PM77 °FScattered clouds.8 mph44%29.65 "HgN/A
4:50 PM79 °FScattered clouds.7 mph42%29.68 "HgN/A
4:20 PM79 °FScattered clouds.9 mph42%29.68 "HgN/A
3:50 PM79 °FScattered clouds.10 mph45%29.68 "HgN/A
3:20 PM79 °FScattered clouds.12 mph45%29.68 "HgN/A
2:50 PM81 °FScattered clouds.10 mph39%29.68 "HgN/A
2:20 PM79 °FScattered clouds.10 mph48%29.68 "HgN/A
1:50 PM79 °FScattered clouds.10 mph48%29.71 "HgN/A
1:20 PM79 °FScattered clouds.10 mph45%29.71 "HgN/A
12:50 PM77 °FScattered clouds.7 mph47%29.74 "HgN/A
12:20 PM75 °FScattered clouds.7 mph54%29.74 "HgN/A
11:50 AM75 °FScattered clouds.7 mph54%29.74 "HgN/A
11:20 AM75 °FScattered clouds.5 mph54%29.74 "HgN/A
10:50 AM75 °FScattered clouds.6 mph54%29.74 "HgN/A
10:20 AM73 °FScattered clouds.2 mph53%29.74 "HgN/A
9:50 AM73 °FScattered clouds.5 mph57%29.74 "HgN/A
9:20 AM72 °FBroken clouds.7 mph61%29.74 "HgN/A
8:50 AM72 °FBroken clouds.7 mph73%29.74 "HgN/A
8:20 AM70 °FBroken clouds.6 mph78%29.74 "HgN/A
7:50 AM68 °FBroken clouds.2 mph83%29.74 "HgN/A
7:20 AM68 °FBroken clouds.2 mph83%29.74 "HgN/A
6:50 AM66 °FSprinkles. Broken clouds.No wind88%29.74 "Hg4 mi
6:20 AM66 °FSprinkles. Fog.2 mph88%29.74 "Hg2 mi
5:50 AM64 °FPassing clouds.No wind94%29.74 "HgN/A
5:20 AM66 °FPassing clouds.No wind88%29.74 "HgN/A
4:50 AM66 °FPassing clouds.5 mph83%29.71 "HgN/A
4:20 AM64 °FPassing clouds.No wind88%29.74 "HgN/A
3:50 AM64 °FPassing clouds.No wind88%29.74 "HgN/A
3:20 AM64 °FPassing clouds.No wind88%29.74 "HgN/A
2:50 AM64 °FPassing clouds.No wind88%29.74 "HgN/A
2:20 AM64 °FPassing clouds.No wind88%29.74 "HgN/A
1:50 AM66 °FPassing clouds.2 mph88%29.74 "HgN/A
1:20 AM66 °FPassing clouds.1 mph88%29.77 "HgN/A
12:50 AM66 °FPassing clouds.No wind88%29.77 "HgN/A
12:20 AM66 °FPassing clouds.3 mph88%29.77 "HgN/A
11:50 PM
Wed, May 25
68 °FPassing clouds.3 mph83%29.77 "HgN/A
11:20 PM68 °FPassing clouds.5 mph83%29.77 "HgN/A
10:50 PM68 °FPassing clouds.5 mph88%29.80 "HgN/A
10:20 PM70 °FPassing clouds.6 mph83%29.80 "HgN/A
9:50 PM70 °FPassing clouds.5 mph78%29.80 "HgN/A
9:20 PM70 °FPassing clouds.5 mph78%29.80 "HgN/A
Weather by CustomWeather, © 2016

See weather overviewHow to use our weather pages